TimeMST,TemperatureF,Dew PointF,Humidity,Sea Level PressureIn,VisibilityMPH,Wind Direction,Wind SpeedMPH,Gust SpeedMPH,PrecipitationIn,Events,Conditions,WindDirDegrees,DateUTC
12:53 AM,-16.1,-20.9,79,30.65,10.0,ENE,3.5,-,N/A,,Clear,60,2013-01-04 07:53:00
1:53 AM,-15.0,-18.0,86,30.63,10.0,Calm,Calm,-,N/A,,Clear,0,2013-01-04 08:53:00
2:53 AM,-14.1,-18.0,82,30.61,10.0,WNW,3.5,-,N/A,,Clear,290,2013-01-04 09:53:00
3:53 AM,-18.0,-23.1,78,30.61,10.0,ESE,3.5,-,N/A,,Clear,120,2013-01-04 10:53:00
4:53 AM,-16.6,-20.2,84,30.25,10.0,Calm,Calm,-,N/A,,Clear,0,2013-01-04 11:53:00
5:53 AM,-20.2,-23.8,83,30.24,10.0,Calm,Calm,-,N/A,,Clear,0,2013-01-04 12:53:00
6:53 AM,-18.9,-23.1,81,30.69,10.0,Calm,Calm,-,N/A,,Clear,0,2013-01-04 13:53:00
7:53 AM,-18.0,-23.1,78,30.72,10.0,Calm,Calm,-,N/A,,Clear,0,2013-01-04 14:53:00
8:53 AM,-11.0,-17.0,75,30.68,10.0,Calm,Calm,-,N/A,,Clear,0,2013-01-04 15:53:00
9:53 AM,-9.0,-15.0,75,30.68,10.0,East,3.5,-,N/A,,Clear,90,2013-01-04 16:53:00
10:53 AM,-2.9,-9.9,72,30.63,10.0,Calm,Calm,-,N/A,,Clear,0,2013-01-04 17:53:00
11:53 AM,5.0,-5.1,63,30.60,10.0,Calm,Calm,-,N/A,,Clear,0,2013-01-04 18:53:00
12:53 PM,9.0,-2.0,61,30.54,10.0,Calm,Calm,-,N/A,,Clear,0,2013-01-04 19:53:00
1:53 PM,10.9,-2.0,56,30.50,10.0,Calm,Calm,-,N/A,,Clear,0,2013-01-04 20:53:00
2:53 PM,14.0,-0.0,54,30.47,10.0,Calm,Calm,-,N/A,,Clear,0,2013-01-04 21:53:00
3:53 PM,15.1,-0.0,51,30.49,10.0,Calm,Calm,-,N/A,,Clear,0,2013-01-04 22:53:00
4:53 PM,9.0,-2.9,59,30.51,10.0,Calm,Calm,-,N/A,,Clear,0,2013-01-04 23:53:00
5:53 PM,1.4,-7.6,66,30.14,10.0,Calm,Calm,-,N/A,,Clear,0,2013-01-05 00:53:00
6:53 PM,-2.9,-9.9,72,30.58,10.0,ENE,6.9,-,N/A,,Clear,70,2013-01-05 01:53:00
7:53 PM,-0.9,-7.1,75,30.57,10.0,Calm,Calm,-,N/A,,Clear,0,2013-01-05 02:53:00
8:53 PM,-6.0,-11.0,79,30.56,10.0,Calm,Calm,-,N/A,,Clear,0,2013-01-05 03:53:00
9:53 PM,-6.0,-11.0,79,30.55,10.0,SW,3.5,-,N/A,,Clear,230,2013-01-05 04:53:00
10:53 PM,-6.0,-9.9,83,30.53,9.0,SSW,3.5,-,N/A,,Clear,210,2013-01-05 05:53:00
11:53 PM,-4.0,-9.0,79,30.48,10.0,Calm,Calm,-,N/A,,Clear,0,2013-01-05 06:53:00